EZS37UG EHAM-LSGG

Flight info

Callsign EZS37UG
Flight time 1h 6m
Altitude 35000
Route LOPIK N852 LNO DCT SUTAL DCT GTQ DCT POGOL DCT LASAT DCT MOROK Z24 AKITO
Aircraft A320/M-SDE2E3FGHIJ1RWXYZ/LB1

Departure

Time 2026-05-06 07:30
Airport Amsterdam Airport Schiphol (EHAM)

Arrival

Time 2026-05-06 08:37
Airport Geneva International Airport (LSGG)
Time Latitude Longitude Altitude Speed Heading
2026-05-06 07:04 52.31027 4.75459 -2 ft 0 kts 149°
2026-05-06 07:04 52.31027 4.75460 -2 ft 0 kts 151°
2026-05-06 07:05 52.31027 4.75459 -2 ft 0 kts 149°
2026-05-06 07:20 52.31035 4.75451 -2 ft 4 kts 148°
2026-05-06 07:20 52.31055 4.75424 -2 ft 4 kts 120°
2026-05-06 07:20 52.31060 4.75387 -2 ft 4 kts 66°
2026-05-06 07:20 52.31058 4.75378 -2 ft 0 kts 57°
2026-05-06 07:22 52.31060 4.75383 -2 ft 3 kts 58°
2026-05-06 07:23 52.31088 4.75457 -2 ft 12 kts 54°
2026-05-06 07:23 52.31170 4.75494 -2 ft 13 kts 356°
2026-05-06 07:23 52.31230 4.75488 -2 ft 13 kts 356°
2026-05-06 07:23 52.31322 4.75479 -2 ft 13 kts 356°
2026-05-06 07:24 52.31414 4.75472 -2 ft 13 kts 356°
2026-05-06 07:24 52.31500 4.75457 -3 ft 10 kts 331°
2026-05-06 07:24 52.31510 4.75356 -3 ft 9 kts 266°
2026-05-06 07:24 52.31506 4.75258 -3 ft 8 kts 266°
2026-05-06 07:25 52.31502 4.75144 -3 ft 11 kts 267°
2026-05-06 07:25 52.31499 4.75030 -3 ft 9 kts 267°
2026-05-06 07:25 52.31495 4.74911 -2 ft 13 kts 266°
2026-05-06 07:25 52.31490 4.74749 -2 ft 15 kts 267°
2026-05-06 07:26 52.31485 4.74566 -2 ft 18 kts 267°
2026-05-06 07:26 52.31476 4.74350 -2 ft 21 kts 266°
2026-05-06 07:26 52.31454 4.74194 -2 ft 13 kts 235°
2026-05-06 07:26 52.31378 4.74134 -2 ft 13 kts 182°
2026-05-06 07:27 52.31289 4.74126 -2 ft 13 kts 183°
2026-05-06 07:27 52.31173 4.74117 -3 ft 20 kts 183°
2026-05-06 07:27 52.31027 4.74102 -3 ft 22 kts 183°
2026-05-06 07:27 52.30879 4.74086 -3 ft 20 kts 184°
2026-05-06 07:28 52.30743 4.74074 -3 ft 19 kts 183°
2026-05-06 07:28 52.30615 4.74064 -2 ft 18 kts 182°
2026-05-06 07:28 52.30425 4.74027 -2 ft 11 kts 214°
2026-05-06 07:29 52.30408 4.73923 -3 ft 10 kts 272°
2026-05-06 07:29 52.30414 4.73802 -5 ft 10 kts 278°
2026-05-06 07:29 52.30466 4.73759 -4 ft 9 kts 358°
2026-05-06 07:29 52.30599 4.73772 -6 ft 46 kts
2026-05-06 07:30 52.31145 4.73822 -2 ft 109 kts
2026-05-06 07:30 52.32073 4.73904 29 ft 154 kts
2026-05-06 07:30 52.33117 4.73992 770 ft 147 kts
2026-05-06 07:30 52.34107 4.74437 1472 ft 152 kts 21°
2026-05-06 07:31 52.35159 4.75089 1794 ft 173 kts 24°
2026-05-06 07:31 52.36350 4.75886 2121 ft 198 kts 27°
2026-05-06 07:31 52.37391 4.77357 2778 ft 205 kts 62°
2026-05-06 07:31 52.37584 4.79685 3551 ft 216 kts 96°
2026-05-06 07:32 52.37150 4.82056 4413 ft 224 kts 116°
2026-05-06 07:32 52.36066 4.83949 5235 ft 236 kts 142°
2026-05-06 07:32 52.34465 4.84976 5746 ft 266 kts 170°
2026-05-06 07:32 52.32549 4.84998 6372 ft 281 kts 180°
2026-05-06 07:33 52.30590 4.84926 7277 ft 283 kts 181°
2026-05-06 07:33 52.28607 4.84861 8138 ft 287 kts 181°
2026-05-06 07:33 52.26609 4.85151 9010 ft 291 kts 167°
2026-05-06 07:33 52.24707 4.86300 9874 ft 295 kts 152°
2026-05-06 07:34 52.23003 4.88235 10466 ft 308 kts 142°
2026-05-06 07:34 52.21269 4.90488 10803 ft 328 kts 141°
2026-05-06 07:34 52.19462 4.92851 11425 ft 337 kts 141°
2026-05-06 07:34 52.17627 4.95253 12201 ft 340 kts 141°
2026-05-06 07:35 52.15766 4.97681 12912 ft 344 kts 140°
2026-05-06 07:35 52.13888 5.00122 13692 ft 348 kts 140°
2026-05-06 07:35 52.11988 5.02584 14370 ft 351 kts 140°
2026-05-06 07:35 52.09966 5.04832 15035 ft 354 kts 151°
2026-05-06 07:36 52.07694 5.06398 15752 ft 356 kts 163°
2026-05-06 07:36 52.05304 5.07467 16511 ft 356 kts 165°
2026-05-06 07:36 52.02913 5.08524 17254 ft 357 kts 165°
2026-05-06 07:36 52.00516 5.09589 17990 ft 357 kts 165°
2026-05-06 07:37 51.98116 5.10661 18654 ft 358 kts 165°
2026-05-06 07:37 51.95739 5.11725 19199 ft 361 kts 165°
2026-05-06 07:37 51.93301 5.12813 19735 ft 365 kts 165°
2026-05-06 07:37 51.90807 5.13924 20289 ft 368 kts 165°
2026-05-06 07:38 51.88361 5.15011 20843 ft 371 kts 165°
2026-05-06 07:38 51.85872 5.16116 21445 ft 372 kts 165°
2026-05-06 07:38 51.83363 5.17228 21930 ft 376 kts 165°
2026-05-06 07:38 51.80835 5.18349 22492 ft 377 kts 165°
2026-05-06 07:39 51.78297 5.19477 22980 ft 381 kts 165°
2026-05-06 07:39 51.75735 5.20610 23509 ft 382 kts 165°
2026-05-06 07:39 51.73161 5.21744 23923 ft 385 kts 165°
2026-05-06 07:39 51.70560 5.22886 24323 ft 388 kts 165°
2026-05-06 07:40 51.67950 5.24035 24747 ft 390 kts 165°
2026-05-06 07:40 51.65321 5.25191 25135 ft 393 kts 165°
2026-05-06 07:40 51.62666 5.26356 25471 ft 397 kts 165°
2026-05-06 07:40 51.59989 5.27530 25875 ft 399 kts 165°
2026-05-06 07:41 51.57307 5.28705 26331 ft 400 kts 165°
2026-05-06 07:41 51.54615 5.29886 26696 ft 403 kts 165°
2026-05-06 07:41 51.51905 5.31074 27113 ft 404 kts 164°
2026-05-06 07:41 51.49189 5.32259 27557 ft 405 kts 164°
2026-05-06 07:42 51.46463 5.33444 27942 ft 407 kts 164°
2026-05-06 07:42 51.43721 5.34636 28280 ft 410 kts 164°
2026-05-06 07:42 51.40951 5.35839 28577 ft 414 kts 164°
2026-05-06 07:42 51.38163 5.37050 28930 ft 417 kts 164°
2026-05-06 07:43 51.35356 5.38274 29271 ft 419 kts 164°
2026-05-06 07:43 51.32537 5.39506 29622 ft 421 kts 164°
2026-05-06 07:43 51.29701 5.40746 29975 ft 423 kts 163°
2026-05-06 07:43 51.26857 5.41986 30263 ft 425 kts 164°
2026-05-06 07:44 51.23983 5.43140 30556 ft 427 kts 166°
2026-05-06 07:44 51.21075 5.44158 30865 ft 428 kts 167°
2026-05-06 07:44 51.18148 5.45096 31117 ft 431 kts 168°
2026-05-06 07:44 51.15213 5.46127 31438 ft 431 kts 166°
2026-05-06 07:45 51.12308 5.47298 31814 ft 431 kts 165°
2026-05-06 07:45 51.09418 5.48567 32163 ft 431 kts 164°
2026-05-06 07:45 51.06540 5.49883 32552 ft 430 kts 164°
2026-05-06 07:45 51.03674 5.51201 32947 ft 429 kts 164°
2026-05-06 07:46 51.00797 5.52504 33204 ft 431 kts 165°
2026-05-06 07:46 50.97908 5.53785 33530 ft 431 kts 165°
2026-05-06 07:46 50.95017 5.55045 33895 ft 431 kts 165°
2026-05-06 07:46 50.92122 5.56292 34225 ft 431 kts 165°
2026-05-06 07:47 50.89225 5.57534 34504 ft 431 kts 166°
2026-05-06 07:47 50.86329 5.58779 34743 ft 432 kts 166°
2026-05-06 07:47 50.80576 5.61258 34826 ft 424 kts 166°
2026-05-06 07:48 50.74903 5.63699 34815 ft 421 kts 166°
2026-05-06 07:48 50.69264 5.66127 34817 ft 419 kts 166°
2026-05-06 07:49 50.63651 5.68610 34815 ft 419 kts 165°
2026-05-06 07:49 50.58071 5.71306 34821 ft 420 kts 160°
2026-05-06 07:50 50.52655 5.74754 34810 ft 420 kts 160°
2026-05-06 07:50 50.47220 5.78131 34814 ft 420 kts 160°
2026-05-06 07:51 50.41819 5.81461 34811 ft 420 kts 160°
2026-05-06 07:51 50.36389 5.84814 34811 ft 419 kts 160°
2026-05-06 07:52 50.30966 5.88163 34814 ft 419 kts 160°
2026-05-06 07:52 50.25543 5.91499 34805 ft 419 kts 160°
2026-05-06 07:53 50.20111 5.94833 34808 ft 419 kts 160°
2026-05-06 07:53 50.14681 5.98164 34790 ft 420 kts 160°
2026-05-06 07:54 50.09247 6.01488 34794 ft 420 kts 160°
2026-05-06 07:54 50.03808 6.04800 34779 ft 420 kts 160°
2026-05-06 07:55 49.98370 6.08107 34771 ft 420 kts 160°
2026-05-06 07:55 49.92934 6.11410 34774 ft 419 kts 160°
2026-05-06 07:56 49.87496 6.14708 34767 ft 420 kts 160°
2026-05-06 07:56 49.82055 6.17991 34768 ft 420 kts 160°
2026-05-06 07:57 49.76606 6.21265 34769 ft 420 kts 160°
2026-05-06 07:57 49.71168 6.24530 34777 ft 419 kts 160°
2026-05-06 07:58 49.65732 6.27793 34779 ft 419 kts 160°
2026-05-06 07:58 49.60301 6.31050 34772 ft 419 kts 161°
2026-05-06 07:59 49.54877 6.34286 34775 ft 418 kts 161°
2026-05-06 07:59 49.49459 6.37504 34774 ft 417 kts 161°
2026-05-06 08:00 49.44066 6.40786 34771 ft 417 kts 159°
2026-05-06 08:00 49.38761 6.44405 34771 ft 417 kts 158°
2026-05-06 08:01 49.33486 6.48117 34776 ft 417 kts 158°
2026-05-06 08:01 49.28195 6.51759 34777 ft 417 kts 159°
2026-05-06 08:02 49.22897 6.55339 34783 ft 416 kts 159°
2026-05-06 08:02 49.17595 6.58909 34791 ft 416 kts 159°
2026-05-06 08:03 49.12296 6.62472 34799 ft 416 kts 159°
2026-05-06 08:03 49.07011 6.66018 34811 ft 414 kts 159°
2026-05-06 08:04 49.01755 6.69542 34829 ft 411 kts 160°
2026-05-06 08:04 48.96264 6.71472 34823 ft 403 kts 180°
2026-05-06 08:05 48.90677 6.71290 34816 ft 401 kts 183°
2026-05-06 08:05 48.85100 6.71072 34807 ft 401 kts 182°
2026-05-06 08:06 48.79521 6.70867 34805 ft 401 kts 182°
2026-05-06 08:06 48.73938 6.70656 34801 ft 402 kts 182°
2026-05-06 08:07 48.68353 6.70445 34791 ft 402 kts 182°
2026-05-06 08:07 48.62765 6.70222 34802 ft 401 kts 183°
2026-05-06 08:08 48.58122 6.70032 34800 ft 401 kts 182°
2026-05-06 08:08 48.52538 6.69820 34799 ft 402 kts 182°
2026-05-06 08:09 48.46041 6.69573 34801 ft 402 kts 182°
2026-05-06 08:09 48.41359 6.69390 34798 ft 402 kts 182°
2026-05-06 08:10 48.35761 6.69177 34802 ft 403 kts 182°
2026-05-06 08:10 48.30160 6.68960 34803 ft 403 kts 183°
2026-05-06 08:11 48.24557 6.68740 34809 ft 403 kts 182°
2026-05-06 08:11 48.18951 6.68532 34802 ft 403 kts 183°
2026-05-06 08:12 48.13334 6.68325 34802 ft 404 kts 183°
2026-05-06 08:12 48.07713 6.68108 34804 ft 404 kts 183°
2026-05-06 08:13 48.02088 6.67889 34808 ft 404 kts 183°
2026-05-06 08:13 47.96462 6.67678 34814 ft 405 kts 183°
2026-05-06 08:14 47.90835 6.67471 34815 ft 405 kts 183°
2026-05-06 08:14 47.85209 6.67254 34772 ft 404 kts 183°
2026-05-06 08:15 47.82414 6.67144 34385 ft 400 kts 183°
2026-05-06 08:15 47.79647 6.67039 33997 ft 395 kts 183°
2026-05-06 08:15 47.76921 6.66942 33588 ft 390 kts 183°
2026-05-06 08:15 47.74224 6.66843 33128 ft 385 kts 183°
2026-05-06 08:16 47.71567 6.66742 32670 ft 380 kts 183°
2026-05-06 08:16 47.68938 6.66644 32244 ft 375 kts 182°
2026-05-06 08:16 47.66346 6.66545 31815 ft 370 kts 182°
2026-05-06 08:16 47.63785 6.66448 31398 ft 366 kts 182°
2026-05-06 08:17 47.61257 6.66355 30986 ft 361 kts 181°
2026-05-06 08:17 47.58791 6.66260 30815 ft 359 kts 181°
2026-05-06 08:17 47.53761 6.66073 30839 ft 360 kts 181°
2026-05-06 08:18 47.48787 6.65888 30838 ft 360 kts 181°
2026-05-06 08:18 47.43776 6.65705 30819 ft 360 kts 181°
2026-05-06 08:19 47.41285 6.65615 30421 ft 356 kts 181°
2026-05-06 08:19 47.38820 6.65524 29988 ft 353 kts 181°
2026-05-06 08:19 47.36374 6.65430 29457 ft 350 kts 181°
2026-05-06 08:19 47.33919 6.65335 28445 ft 359 kts 181°
2026-05-06 08:20 47.31402 6.65243 27631 ft 363 kts 181°
2026-05-06 08:20 47.28868 6.65154 26861 ft 367 kts 181°
2026-05-06 08:20 47.26242 6.65061 26013 ft 388 kts 181°
2026-05-06 08:20 47.23529 6.64808 25091 ft 394 kts 189°
2026-05-06 08:21 47.20906 6.63580 24191 ft 401 kts 204°
2026-05-06 08:21 47.18587 6.61270 23451 ft 406 kts 218°
2026-05-06 08:21 47.16471 6.58502 22557 ft 408 kts 219°
2026-05-06 08:21 47.14356 6.55723 21802 ft 407 kts 219°
2026-05-06 08:22 47.12226 6.52924 20969 ft 406 kts 220°
2026-05-06 08:22 47.10122 6.50162 20405 ft 401 kts 220°
2026-05-06 08:22 47.08100 6.47508 20059 ft 391 kts 220°
2026-05-06 08:22 47.06051 6.44824 19447 ft 388 kts 220°
2026-05-06 08:23 47.04040 6.42200 18873 ft 385 kts 220°
2026-05-06 08:23 47.02043 6.39604 18252 ft 384 kts 220°
2026-05-06 08:23 47.00049 6.37012 17655 ft 381 kts 221°
2026-05-06 08:23 46.98081 6.34444 17152 ft 377 kts 221°
2026-05-06 08:24 46.96014 6.32152 16602 ft 371 kts 207°
2026-05-06 08:24 46.93580 6.31023 16188 ft 369 kts 187°
2026-05-06 08:24 46.91037 6.31202 15650 ft 367 kts 167°
2026-05-06 08:24 46.88655 6.32339 15159 ft 363 kts 161°
2026-05-06 08:25 46.86299 6.33602 14728 ft 358 kts 161°
2026-05-06 08:25 46.83982 6.34852 14316 ft 352 kts 161°
2026-05-06 08:25 46.81700 6.36080 13915 ft 347 kts 161°
2026-05-06 08:25 46.79492 6.37269 13491 ft 329 kts 162°
2026-05-06 08:26 46.77358 6.38170 13034 ft 311 kts 168°
2026-05-06 08:26 46.75305 6.38937 12583 ft 298 kts 168°
2026-05-06 08:26 46.73332 6.39658 12139 ft 288 kts 168°
2026-05-06 08:26 46.71407 6.40359 11706 ft 283 kts 168°
2026-05-06 08:27 46.69508 6.41058 11292 ft 281 kts 168°
2026-05-06 08:27 46.67619 6.41729 11019 ft 277 kts 173°
2026-05-06 08:27 46.65712 6.42074 10674 ft 275 kts 176°
2026-05-06 08:27 46.63823 6.42362 10085 ft 274 kts 176°
2026-05-06 08:28 46.61900 6.42636 9314 ft 276 kts 176°
2026-05-06 08:28 46.60008 6.42904 9062 ft 270 kts 176°
2026-05-06 08:28 46.58154 6.43170 8729 ft 266 kts 176°
2026-05-06 08:28 46.56320 6.43437 8361 ft 263 kts 176°
2026-05-06 08:29 46.54508 6.43702 8002 ft 260 kts 176°
2026-05-06 08:29 46.52744 6.43956 7911 ft 248 kts 176°
2026-05-06 08:29 46.51066 6.44198 7827 ft 237 kts 176°
2026-05-06 08:29 46.49460 6.44433 7726 ft 227 kts 177°
2026-05-06 08:30 46.47924 6.44519 7623 ft 216 kts 189°
2026-05-06 08:30 46.46510 6.43894 7497 ft 215 kts 208°
2026-05-06 08:30 46.45323 6.42566 7159 ft 218 kts 225°
2026-05-06 08:30 46.44266 6.40987 6838 ft 218 kts 225°
2026-05-06 08:31 46.43203 6.39420 6534 ft 218 kts 224°
2026-05-06 08:31 46.42135 6.37856 6215 ft 219 kts 224°
2026-05-06 08:31 46.41065 6.36291 5890 ft 218 kts 224°
2026-05-06 08:31 46.39998 6.34732 5591 ft 217 kts 225°
2026-05-06 08:32 46.38936 6.33195 5288 ft 215 kts 224°
2026-05-06 08:32 46.37889 6.31661 4978 ft 213 kts 225°
2026-05-06 08:32 46.36869 6.30154 4680 ft 205 kts 225°
2026-05-06 08:32 46.35895 6.28714 4441 ft 196 kts 225°
2026-05-06 08:33 46.34945 6.27310 4216 ft 194 kts 225°
2026-05-06 08:33 46.34017 6.25939 3971 ft 187 kts 225°
2026-05-06 08:33 46.33124 6.24620 3705 ft 180 kts 225°
2026-05-06 08:33 46.32274 6.23365 3472 ft 168 kts 225°
2026-05-06 08:34 46.31481 6.22195 3256 ft 157 kts 225°
2026-05-06 08:34 46.30024 6.20047 2838 ft 144 kts 225°
2026-05-06 08:34 46.29326 6.19019 2658 ft 144 kts 225°
2026-05-06 08:35 46.28627 6.17989 2453 ft 142 kts 225°
2026-05-06 08:35 46.27937 6.16972 2249 ft 140 kts 225°
2026-05-06 08:35 46.27251 6.15964 2052 ft 141 kts 225°
2026-05-06 08:35 46.26569 6.14956 1861 ft 139 kts 225°
2026-05-06 08:36 46.25895 6.13960 1702 ft 139 kts 225°
2026-05-06 08:36 46.25213 6.12960 1508 ft 139 kts 225°
2026-05-06 08:36 46.24551 6.11996 1405 ft 126 kts 226°
2026-05-06 08:36 46.24021 6.11212 1407 ft 86 kts 225°
2026-05-06 08:37 46.23751 6.10822 1397 ft 31 kts 218°
2026-05-06 08:37 46.23592 6.10722 1402 ft 19 kts 194°
2026-05-06 08:37 46.23503 6.10689 1397 ft 6 kts 194°
2026-05-06 08:37 46.23465 6.10675 1393 ft 7 kts 194°
2026-05-06 08:38 46.23410 6.10645 1400 ft 10 kts 213°
2026-05-06 08:38 46.23348 6.10567 1399 ft 14 kts 225°
2026-05-06 08:38 46.23274 6.10459 1399 ft 17 kts 226°
2026-05-06 08:38 46.23188 6.10331 1396 ft 19 kts 225°
2026-05-06 08:39 46.23103 6.10198 1396 ft 18 kts 227°
2026-05-06 08:39 46.23050 6.10167 1406 ft 8 kts 134°
2026-05-06 08:39 46.23000 6.10239 1395 ft 13 kts 135°
2026-05-06 08:39 46.22953 6.10313 1400 ft 8 kts 114°
2026-05-06 08:40 46.22979 6.10383 1397 ft 11 kts 45°
2026-05-06 08:40 46.23032 6.10462 1395 ft 11 kts 47°
2026-05-06 08:40 46.23062 6.10513 1398 ft 3 kts 67°
2026-05-06 08:40 46.23055 6.10534 1396 ft 1 kts 118°
2026-05-06 08:41 46.23042 6.10555 1397 ft 6 kts 136°
2026-05-06 08:41 46.23028 6.10575 1396 ft 2 kts 135°
2026-05-06 08:41 46.23027 6.10576 1396 ft 0 kts 135°